TimeCDT,TemperatureF,Dew PointF,Humidity,Sea Level PressureIn,VisibilityMPH,Wind Direction,Wind SpeedMPH,Gust SpeedMPH,PrecipitationIn,Events,Conditions,WindDirDegrees,DateUTC
12:53 AM,54.0,33.1,45,29.79,10.0,SSW,17.3,31.1,N/A,,Partly Cloudy,200,2012-10-09 05:53:00
1:53 AM,54.0,33.1,45,29.79,10.0,SSW,15.0,24.2,N/A,,Partly Cloudy,210,2012-10-09 06:53:00
3:53 AM,54.0,33.1,45,29.78,10.0,SSW,15.0,25.3,N/A,,Overcast,210,2012-10-09 08:53:00
4:53 AM,53.1,35.1,50,29.79,10.0,SSW,13.8,-,0.00,Rain,Light Rain,210,2012-10-09 09:53:00
5:53 AM,51.1,37.0,59,29.79,10.0,SSW,10.4,-,0.00,Rain,Light Rain,200,2012-10-09 10:53:00
6:53 AM,51.1,37.9,61,29.80,10.0,SSW,9.2,-,0.00,,Overcast,210,2012-10-09 11:53:00
7:53 AM,48.9,39.9,71,29.82,7.0,SSW,12.7,-,0.00,Rain,Light Rain,200,2012-10-09 12:53:00
8:53 AM,48.0,43.0,83,29.82,7.0,SSW,5.8,-,0.04,Rain,Light Rain,200,2012-10-09 13:53:00
9:53 AM,46.9,43.0,86,29.81,7.0,SSW,6.9,-,0.04,Rain,Light Rain,200,2012-10-09 14:53:00
10:53 AM,46.9,43.0,86,29.79,10.0,SSW,9.2,-,0.06,Rain,Light Rain,210,2012-10-09 15:53:00
11:53 AM,46.9,43.0,86,29.77,10.0,SW,5.8,-,0.02,Rain,Light Rain,220,2012-10-09 16:53:00
12:53 PM,48.9,45.0,86,29.74,7.0,South,5.8,-,0.00,Rain,Light Rain,190,2012-10-09 17:53:00
1:24 PM,48.2,44.6,87,29.73,4.0,SSW,10.4,-,0.01,Rain,Light Rain,210,2012-10-09 18:24:00
1:53 PM,48.9,44.1,83,29.75,4.0,SW,10.4,19.6,0.04,Rain,Light Rain,220,2012-10-09 18:53:00
2:36 PM,48.2,44.6,87,29.73,4.0,SW,11.5,20.7,0.04,Rain,Rain,220,2012-10-09 19:36:00
2:53 PM,48.9,45.0,86,29.74,5.0,SW,9.2,-,0.06,Rain,Rain,220,2012-10-09 19:53:00
3:53 PM,48.0,46.0,93,29.75,3.0,SSW,9.2,-,0.08,Rain,Light Rain,210,2012-10-09 20:53:00
4:29 PM,46.4,42.8,87,29.77,6.0,West,15.0,-,0.06,Rain,Light Rain,280,2012-10-09 21:29:00
4:44 PM,44.6,42.8,93,29.77,7.0,West,17.3,-,0.07,Rain,Light Rain,280,2012-10-09 21:44:00
4:53 PM,45.0,41.0,86,29.79,6.0,West,17.3,-,0.07,Rain,Light Rain,280,2012-10-09 21:53:00
5:18 PM,44.6,39.2,81,29.79,5.0,WNW,17.3,21.9,0.02,Rain,Light Rain,290,2012-10-09 22:18:00
5:29 PM,44.6,39.2,81,29.80,6.0,West,12.7,-,0.03,Rain,Light Rain,280,2012-10-09 22:29:00
5:53 PM,43.0,39.0,86,29.81,6.0,West,12.7,-,0.04,Rain,Light Rain,270,2012-10-09 22:53:00
6:53 PM,43.0,39.0,86,29.81,10.0,WSW,6.9,-,0.01,,Overcast,250,2012-10-09 23:53:00
7:53 PM,43.0,37.9,82,29.82,10.0,WSW,8.1,-,N/A,,Clear,250,2012-10-10 00:53:00
8:53 PM,43.0,37.9,82,29.82,10.0,WSW,11.5,-,N/A,,Mostly Cloudy,250,2012-10-10 01:53:00
9:53 PM,43.0,37.0,80,29.81,10.0,West,12.7,-,N/A,,Overcast,270,2012-10-10 02:53:00
10:53 PM,42.1,37.9,85,29.82,10.0,West,11.5,-,N/A,,Clear,270,2012-10-10 03:53:00
11:53 PM,41.0,37.0,86,29.83,10.0,West,8.1,-,N/A,,Clear,260,2012-10-10 04:53:00